[[{"header":{"parameterUnit":"m.s-1","parameterCategory":1,"la1":30.2991,"la2":30.254,"lo1":-89.0895,"lo2":-89.0444,"dy":0.0017,"dx":0.0017,"nx":28,"ny":28,"refTime":"2024-09-04T03:00:00:Z","depth":0,"parameterNumber":2,"parameterNumberName":"U-component_of_WINDS"},"data":[0,0,0,0,0,0,0,0,0,0,0,0,0,0,0,0,0,0,0,0,0,0,0,0,0,0,0,0,0,0,0,0,0,0,0,0,0,0,0,0,0,0,0,0,0,0,0,0,0,0,0,0,0,0,0,0,0,0,-8.6171,-8.617,0,-8.6153,-8.6153,-8.6153,-8.5946,-8.594,-8.5935,-8.593,-8.5913,-8.5917,-8.5921,0,0,0,0,0,0,0,0,0,0,0,0,0,-8.6025,-8.6029,-8.6171,-8.617,-8.617,-8.6153,-8.6153,-8.6153,-8.5946,-8.594,-8.5934,-8.5928,-8.5911,-8.5916,-8.5922,0,0,0,0,0,0,0,0,0,0,0,0,0,-8.6056,-8.603,-8.6171,-8.6065,-8.6056,-8.6154,-8.6153,-8.6153,-8.5948,-8.594,-8.5932,-8.5925,-8.5909,-8.5916,-8.5922,-8.612,0,0,-8.5942,-8.5945,0,0,0,0,0,0,0,0,-8.6055,-8.6062,-8.6081,-8.6073,-8.6062,-8.6044,-8.6095,-8.6142,-8.595,-8.5989,-8.593,-8.5921,-8.5963,-8.5964,-8.5978,-8.6119,-8.6118,-8.5943,-8.5947,-8.595,-8.5952,0,0,0,0,0,0,0,-8.6053,-8.6061,-8.6164,-8.6081,-8.607,-8.6019,-8.6015,-8.6103,-8.602,-8.5985,-8.597,-8.5971,-8.5956,-8.5972,-8.5976,-8.6118,-8.5943,-8.5949,-8.5953,-8.5955,-8.6421,-8.6429,0,0,0,0,0,0,-8.6065,-8.6061,-8.6164,-8.6163,-8.6039,-8.6028,-8.6023,-8.6057,-8.6018,-8.6005,-8.5977,-8.5961,-8.5965,-8.5969,-8.5975,-8.6204,-8.595,-8.5956,-8.596,-8.6413,-8.6423,-8.6432,0,0,0,0,0,0,-8.6063,-8.6076,-8.6165,-8.6108,-8.6115,-8.6039,-8.6079,-8.6061,-8.6077,-8.6013,-8.5997,-8.6009,-8.5959,-8.5966,-8.6086,-8.62,-8.5959,-8.5965,-8.6403,-8.6416,-8.6428,-8.6664,0,0,0,0,0,0,-8.606,-8.6077,-8.6151,-8.6111,-8.6119,-8.6277,-8.6086,-8.6067,-8.6089,-8.6068,-8.6039,-8.6026,-8.5953,-8.6077,-8.6092,-8.6205,-8.597,-8.6392,-8.6409,-8.6424,-8.6645,-8.6683,-8.6715,0,0,0,0,0,-8.6055,-8.6218,-8.6156,-8.6169,-8.621,-8.6283,-8.6288,-8.6201,-8.61,-8.6173,-8.6132,-8.6027,-8.6186,-8.6091,-8.6106,-8.6223,-8.6385,-8.6404,-8.6422,-8.663,-8.6675,-8.6714,0,0,0,0,0,0,-8.6272,-8.6211,-8.6141,-8.6296,-8.6297,-8.6248,-8.6338,-8.6252,-8.6281,-8.626,-8.6151,-8.6146,-8.6283,-8.6265,-8.616,-8.6413,-8.6267,-8.629,-8.6419,-8.6462,-8.6496,-8.6497,-8.5976,0,0,0,0,0,-8.6338,-8.6403,-8.6345,-8.6488,-8.6492,-8.6416,-8.6445,-8.6378,-8.6374,-8.6373,-8.634,-8.6341,-8.639,-8.6425,-8.6467,-8.6642,-8.6633,-8.673,-8.6765,-8.6794,-8.6815,-8.6906,-8.6949,-8.6494,-8.6494,-8.6494,0,0,-8.6475,-8.6449,-8.6497,-8.6531,-8.6523,-8.6593,-8.6417,-8.6498,-8.6549,-8.6385,-8.6496,-8.6473,-8.6466,-8.6615,-8.6679,-8.6604,-8.6938,-8.6818,-8.6842,-8.6846,-8.693,-8.6973,-8.7012,-8.6507,-8.6505,-8.6503,0,0,-8.6759,-8.6747,-8.6864,-8.6861,-8.6852,-8.6801,-8.683,-8.6795,-8.6773,-8.6884,-8.6763,-8.6822,-8.691,-8.691,-8.6922,-8.721,-8.7114,-8.7227,-8.7408,-8.7498,-8.7534,-8.7565,-8.7668,-8.7706,-8.7248,-8.7248,-8.7249,0,-8.693,-8.703,-8.6935,-8.7024,-8.7043,-8.6899,-8.7017,-8.7019,-8.7025,-8.7041,-8.6958,-8.7066,-8.7051,-8.7198,-8.7269,-8.7283,-8.7313,-8.7228,-8.7537,-8.7567,-8.7595,-8.7691,-8.773,-8.7262,-8.726,-8.7259,-8.7258,0,-8.724,-8.7312,-8.7407,-8.7418,-8.7447,-8.7551,-8.7472,-8.7513,-8.7445,-8.7403,-8.7518,-8.7496,-8.7531,-8.7561,-8.7495,-8.77,-8.7654,-8.7556,-8.7407,-8.7653,-8.7742,-8.7778,-8.7282,-8.7277,-8.7273,-8.7269,0,0,-8.7658,-8.7616,-8.7653,-8.7656,-8.7638,-8.7691,-8.7789,-8.7824,-8.7862,-8.7872,-8.7951,-8.803,-8.7939,-8.7953,-8.7886,-8.7966,-8.8195,-8.7857,-8.7855,-8.792,-8.842,-8.8493,-8.8537,-8.8133,-8.8139,-8.8144,-8.842,0,-8.7932,-8.8095,-8.8014,-8.8188,-8.8253,-8.8119,-8.8204,-8.8202,-8.8167,-8.8216,-8.8176,-8.8234,-8.811,-8.8118,-8.8191,-8.8152,-8.8294,-8.8131,-8.8205,-8.8208,-8.8209,-8.8583,-8.866,-8.8921,-8.8454,-8.846,-8.8464,0,-8.8272,-8.8297,-8.8478,-8.8449,-8.8473,-8.8551,-8.8577,-8.8627,-8.8623,-8.8591,-8.8608,-8.8523,-8.8616,-8.8471,-8.8599,-8.849,-8.8516,-8.8502,-8.851,-8.8512,-8.835,-8.8595,-8.9002,-8.9041,-8.8518,-8.8513,-8.851,0,-8.8558,-8.8638,-8.8756,-8.8763,-8.8732,-8.879,-8.878,-8.8767,-8.8794,-8.8818,-8.8834,-8.8869,-8.8888,-8.8917,-8.8843,-8.8744,-8.8982,-8.883,-8.8958,-8.896,-8.9012,-8.901,-8.9429,-8.9032,-8.9031,-8.9031,-8.903,0,-8.8871,-8.8987,-8.8884,-8.8957,-8.9083,-8.8989,-8.9117,-8.9092,-8.9083,-8.9149,-8.9035,-8.91,-8.8999,-8.9054,-8.8997,-8.9112,-8.9121,-8.9099,-8.9082,-8.9108,-8.9111,-8.9122,-8.9102,-8.9041,-8.9039,-8.9037,-8.9035,0,-8.9211,-8.9147,-8.9267,-8.9229,-8.9222,-8.9317,-8.9283,-8.9349,-8.9307,-8.9392,-8.9406,-8.934,-8.9398,-8.9328,-8.9381,-8.9343,-8.9499,-8.9456,-8.95,-8.9487,-8.9619,-8.9608,-9.0059,-9.0113,-8.9684,-8.9688,-8.9691,0,-8.9415,-8.9501,-8.9472,-8.9508,-8.9505,-8.9565,-8.9592,-8.9504,-8.9537,-8.954,-8.9606,-8.9655,-8.969,-8.979,-8.9746,-8.9786,-8.9742,-8.9898,-8.9747,-8.9771,-8.9744,-8.9739,-8.9747,-8.9928,-8.9933,-8.9937,-8.9941,0,-8.9782,-8.9747,-8.979,-8.9825,-8.986,-8.9883,-8.9896,-8.9932,-8.9841,-8.9884,-8.9943,-8.997,-9.0024,-9.0074,-9.0103,-9.0092,-9.0002,-8.9989,-9.0021,-9.0047,-9.0069,-9.0059,-8.9583,-8.9979,-8.9975,-8.9972,-8.997,-8.9968,-9.0059,-9.0129,-9.0121,-9.0174,-9.0175,-9.0191,-9.0251,-9.0217,-9.0265,-9.0302,-9.0248,-9.0322,-9.0316,-9.0345,-9.0345,-9.0402,-9.0335,-9.0381,-9.0392,-9.0404,-9.0424,-9.0063,-9.0407,-9.0405,-9.0404,-9.0403,-9.0402,0,-9.0419,-9.0408,-9.0458,-9.0481,-9.0523,-9.0436,-9.0447,-9.0488,-9.0555,-9.0558,-9.0595,-9.0663,-9.0712,-9.0674,-9.0714,-9.0767,-9.0727,-9.0781,-9.0775,-9.0774,-9.0482,-9.045,-9.0813,-9.0813,-9.0813,-9.0813,-9.0812,-9.0812,-9.0612,-9.0726,-9.0691,-9.0806,-9.0793,-9.0864,-9.0878,-9.0893,-9.0895,-9.0976,-9.1017,-9.0992,-9.0978,-9.1018,-9.1059,-9.1046,-9.1066,-9.1135,-9.1108,-9.0835,-9.0795,-9.0756,-9.0726,-9.114,-9.1141,-9.1395,-9.1398,-9.1399]},{"header":{"parameterUnit":"m.s-1","parameterCategory":1,"la1":30.2991,"la2":30.254,"lo1":-89.0895,"lo2":-89.0444,"dy":0.0017,"dx":0.0017,"nx":28,"ny":28,"refTime":"2024-09-04T03:00:00:Z","depth":0,"parameterNumber":3,"parameterNumberName":"V-component_of_WINDS"},"data":[0,0,0,0,0,0,0,0,0,0,0,0,0,0,0,0,0,0,0,0,0,0,0,0,0,0,0,0,0,0,0,0,0,0,0,0,0,0,0,0,0,0,0,0,0,0,0,0,0,0,0,0,0,0,0,0,0,0,-0.5277,-0.5277,0,-0.5276,-0.5276,-0.5276,-0.5266,-0.5265,-0.5265,-0.5265,-0.5265,-0.5265,-0.5265,0,0,0,0,0,0,0,0,0,0,0,0,0,-0.5266,-0.5266,-0.5277,-0.5277,-0.5277,-0.5276,-0.5276,-0.5276,-0.5266,-0.5265,-0.5265,-0.5265,-0.5265,-0.5265,-0.5265,0,0,0,0,0,0,0,0,0,0,0,0,0,-0.5269,-0.5266,-0.5277,-0.5271,-0.5271,-0.5276,-0.5276,-0.5276,-0.5266,-0.5265,-0.5265,-0.5264,-0.5264,-0.5265,-0.5265,-0.5276,0,0,-0.5266,-0.5267,0,0,0,0,0,0,0,0,-0.5268,-0.5269,-0.5272,-0.5272,-0.5271,-0.527,-0.5272,-0.5276,-0.5266,-0.5268,-0.5265,-0.5264,-0.5267,-0.5267,-0.5268,-0.5276,-0.5276,-0.5266,-0.5267,-0.5267,-0.5267,0,0,0,0,0,0,0,-0.5268,-0.5269,-0.5276,-0.5272,-0.5272,-0.5268,-0.5268,-0.5273,-0.527,-0.5267,-0.5267,-0.5267,-0.5267,-0.5268,-0.5268,-0.5276,-0.5266,-0.5267,-0.5267,-0.5267,-0.5289,-0.5289,0,0,0,0,0,0,-0.5269,-0.5269,-0.5276,-0.5276,-0.5269,-0.5269,-0.5269,-0.5271,-0.527,-0.5269,-0.5267,-0.5266,-0.5267,-0.5267,-0.5268,-0.5278,-0.5267,-0.5267,-0.5267,-0.5288,-0.5289,-0.5289,0,0,0,0,0,0,-0.5269,-0.527,-0.5277,-0.5272,-0.5273,-0.5269,-0.5272,-0.5271,-0.5272,-0.5269,-0.5268,-0.5269,-0.5267,-0.5267,-0.5273,-0.5278,-0.5267,-0.5268,-0.5288,-0.5289,-0.5289,-0.5301,0,0,0,0,0,0,-0.5269,-0.527,-0.5275,-0.5273,-0.5273,-0.5283,-0.5273,-0.5272,-0.5273,-0.5272,-0.5271,-0.527,-0.5267,-0.5273,-0.5273,-0.5279,-0.5268,-0.5288,-0.5288,-0.5289,-0.53,-0.5301,-0.5303,0,0,0,0,0,-0.5268,-0.5279,-0.5275,-0.5276,-0.5279,-0.5283,-0.5283,-0.5279,-0.5274,-0.5278,-0.5275,-0.527,-0.5277,-0.5273,-0.5274,-0.5279,-0.5287,-0.5288,-0.5289,-0.5299,-0.5301,-0.5303,0,0,0,0,0,0,-0.5283,-0.5279,-0.5274,-0.5285,-0.5284,-0.5281,-0.5287,-0.5282,-0.5283,-0.5282,-0.5276,-0.5276,-0.5282,-0.5281,-0.5277,-0.5288,-0.5281,-0.5282,-0.5289,-0.529,-0.5292,-0.5292,-0.5268,0,0,0,0,0,-0.5287,-0.5291,-0.5287,-0.5296,-0.5296,-0.5291,-0.5293,-0.5289,-0.5288,-0.5288,-0.5286,-0.5285,-0.5287,-0.5289,-0.529,-0.5299,-0.5297,-0.5303,-0.5304,-0.5305,-0.5307,-0.5308,-0.531,-0.5292,-0.5292,-0.5292,0,0,-0.5296,-0.5294,-0.5297,-0.5299,-0.5298,-0.5301,-0.5291,-0.5296,-0.5297,-0.5289,-0.5294,-0.5292,-0.529,-0.5297,-0.53,-0.5297,-0.5311,-0.5306,-0.5307,-0.5308,-0.5309,-0.5311,-0.5313,-0.5292,-0.5292,-0.5292,0,0,-0.5314,-0.5314,-0.532,-0.5319,-0.5317,-0.5313,-0.5315,-0.5312,-0.531,-0.5314,-0.5307,-0.5309,-0.5313,-0.5311,-0.5311,-0.5324,-0.5319,-0.5324,-0.5333,-0.5335,-0.5336,-0.5337,-0.5341,-0.5342,-0.5325,-0.5325,-0.5325,0,-0.5326,-0.5331,-0.5325,-0.5328,-0.5328,-0.5319,-0.5325,-0.5323,-0.5323,-0.5322,-0.5318,-0.532,-0.5319,-0.5324,-0.5326,-0.5327,-0.5327,-0.5325,-0.5336,-0.5338,-0.5339,-0.5342,-0.5343,-0.5326,-0.5326,-0.5326,-0.5326,0,-0.5345,-0.5348,-0.5353,-0.5351,-0.5351,-0.5356,-0.5349,-0.535,-0.5345,-0.5341,-0.5344,-0.5341,-0.5341,-0.5342,-0.5338,-0.5345,-0.5343,-0.5338,-0.5331,-0.5341,-0.5344,-0.5345,-0.5327,-0.5327,-0.5326,-0.5326,0,0,-0.5375,-0.5366,-0.5369,-0.5366,-0.5362,-0.5363,-0.5366,-0.5365,-0.5365,-0.5364,-0.5365,-0.5367,-0.5361,-0.536,-0.5355,-0.5357,-0.5365,-0.5351,-0.5351,-0.5353,-0.5371,-0.5375,-0.5376,-0.5361,-0.5361,-0.5362,-0.5371,0,-0.5392,-0.5397,-0.5389,-0.5396,-0.5397,-0.5386,-0.5389,-0.5385,-0.5381,-0.5381,-0.5375,-0.5376,-0.5369,-0.5368,-0.5369,-0.5364,-0.5369,-0.5363,-0.5362,-0.5362,-0.5363,-0.5378,-0.5383,-0.5392,-0.5372,-0.5372,-0.5372,0,-0.5413,-0.5411,-0.5417,-0.5409,-0.5409,-0.5412,-0.5408,-0.5409,-0.5403,-0.54,-0.5397,-0.5391,-0.5391,-0.5384,-0.5384,-0.538,-0.5379,-0.5376,-0.5376,-0.5376,-0.5368,-0.5378,-0.5395,-0.5396,-0.5374,-0.5374,-0.5374,0,-0.5433,-0.5432,-0.5435,-0.5433,-0.5424,-0.5426,-0.5422,-0.5416,-0.5415,-0.5411,-0.541,-0.5407,-0.5405,-0.5402,-0.5394,-0.539,-0.5395,-0.5387,-0.5391,-0.5391,-0.5393,-0.5393,-0.541,-0.5392,-0.5392,-0.5392,-0.5392,0,-0.5453,-0.5457,-0.5443,-0.5445,-0.5448,-0.5438,-0.5442,-0.5437,-0.5431,-0.5431,-0.5421,-0.5421,-0.541,-0.5408,-0.5401,-0.5401,-0.5401,-0.5397,-0.5395,-0.5398,-0.5398,-0.5397,-0.5396,-0.5393,-0.5392,-0.5392,-0.5392,0,-0.5477,-0.5468,-0.547,-0.546,-0.5457,-0.546,-0.5451,-0.5452,-0.5445,-0.5445,-0.5444,-0.5434,-0.543,-0.5421,-0.5417,-0.5412,-0.5413,-0.541,-0.5415,-0.5414,-0.5418,-0.5417,-0.5434,-0.5435,-0.5418,-0.5418,-0.5418,0,-0.549,-0.5493,-0.5482,-0.5481,-0.5477,-0.5475,-0.5473,-0.5462,-0.546,-0.5452,-0.5453,-0.5449,-0.5445,-0.544,-0.5432,-0.5427,-0.5424,-0.543,-0.5423,-0.5425,-0.5423,-0.5423,-0.5422,-0.5432,-0.5432,-0.5432,-0.5432,0,-0.5514,-0.5509,-0.5506,-0.5501,-0.5498,-0.5493,-0.5488,-0.5488,-0.5475,-0.5473,-0.5469,-0.5466,-0.5459,-0.5454,-0.5448,-0.5443,-0.5435,-0.5434,-0.5434,-0.5437,-0.544,-0.5437,-0.5419,-0.5434,-0.5434,-0.5434,-0.5434,-0.5434,-0.5533,-0.5533,-0.5525,-0.5522,-0.5516,-0.551,-0.551,-0.5502,-0.5498,-0.5492,-0.5485,-0.5481,-0.5473,-0.5463,-0.5458,-0.5454,-0.545,-0.5451,-0.5451,-0.5452,-0.5452,-0.544,-0.5453,-0.5453,-0.5452,-0.5452,-0.5452,0,-0.5556,-0.5549,-0.5545,-0.5537,-0.5534,-0.5525,-0.5518,-0.5516,-0.5512,-0.5505,-0.55,-0.5494,-0.5489,-0.5479,-0.5472,-0.5471,-0.5467,-0.5469,-0.5469,-0.5468,-0.5457,-0.5457,-0.5472,-0.5472,-0.5472,-0.5472,-0.5472,-0.5472,-0.5567,-0.5567,-0.556,-0.5556,-0.5549,-0.5545,-0.5541,-0.5535,-0.5529,-0.5522,-0.5517,-0.551,-0.5501,-0.5493,-0.5487,-0.5484,-0.5481,-0.5485,-0.5481,-0.5471,-0.5469,-0.5467,-0.5467,-0.5485,-0.5485,-0.5492,-0.5492,-0.5492]}]]